This is the latest recevied weather packets stored in our database for station/object YH8VA-1. If no packets are shown the sender has not sent any weather packets the latest 10 day(s).
| Time | Temp. | Humidity | Pressure | Rain* | Wind** | Luminosity | Snow |
|---|---|---|---|---|---|---|---|
| 1778173284 | 32.22° C | 60% | 998 hPa | - | - | 0 W/m² | - |
| 1778172962 | 32.22° C | 60% | 998 hPa | - | - | 0 W/m² | - |
| 1778172640 | 32.22° C | 61% | 998 hPa | - | - | 0 W/m² | - |
| 1778172318 | 32.22° C | 61% | 998 hPa | - | - | 0 W/m² | - |
| 1778171996 | 32.22° C | 61% | 998 hPa | - | - | 0 W/m² | - |
| 1778171674 | 32.22° C | 61% | 998 hPa | - | - | 0 W/m² | - |
| 1778171352 | 32.22° C | 61% | 998 hPa | - | - | 0 W/m² | - |
| 1778171030 | 32.22° C | 61% | 998 hPa | - | - | 0 W/m² | - |
| 1778169125 | 32.78° C | 60% | 999 hPa | - | - | 0 W/m² | - |
| 1778168803 | 32.78° C | 60% | 999 hPa | - | - | 0 W/m² | - |
| 1778168481 | 32.78° C | 60% | 999 hPa | - | - | 0 W/m² | - |
| 1778168159 | 32.78° C | 60% | 999 hPa | - | - | 0 W/m² | - |
| 1778167837 | 32.78° C | 60% | 999 hPa | - | - | 0 W/m² | - |
| 1778167515 | 32.78° C | 60% | 999 hPa | - | - | 0 W/m² | - |
| 1778167193 | 32.78° C | 60% | 999 hPa | - | - | 0 W/m² | - |
| 1778166871 | 32.78° C | 60% | 999 hPa | - | - | 0 W/m² | - |
| 1778166549 | 32.78° C | 61% | 999 hPa | - | - | 0 W/m² | - |
| 1778166227 | 32.78° C | 61% | 999 hPa | - | - | 0 W/m² | - |
| 1778165906 | 32.22° C | 62% | 999 hPa | - | - | 0 W/m² | - |
| 1778165583 | 31.11° C | 65% | 999 hPa | - | - | 0 W/m² | - |
| 1778165261 | 28.89° C | 73% | 999 hPa | - | - | 0 W/m² | - |
| 1778163841 | 32.78° C | 60% | 999 hPa | - | - | 0 W/m² | - |
| 1778163519 | 32.78° C | 60% | 999 hPa | - | - | 0 W/m² | - |
| 1778163197 | 32.78° C | 60% | 999 hPa | - | - | 0 W/m² | - |
| 1778162875 | 32.78° C | 60% | 999 hPa | - | - | 0 W/m² | - |
* Rain since midnight (hover to see other rain measurements)
** Current wind speed in m/s (hover to see current wind gust speed)